Time,TemperatureF,DewpointF,PressureIn,WindDirection,WindDirectionDegrees,WindSpeedMPH,WindSpeedGustMPH,Humidity,HourlyPrecipIn,Conditions,Clouds,dailyrainin,SoftwareType,DateUTC
2013-04-19 00:03:00,32.0,31.0,29.41,North,355,4.0,10.0,97,0.00,,,0.14,,2013-04-19 05:03:00,
2013-04-19 00:11:00,32.0,31.0,29.41,North,355,4.0,10.0,97,0.00,,,0.14,,2013-04-19 05:11:00,
2013-04-19 00:22:00,32.0,31.0,29.42,NNE,20,3.0,11.0,97,0.00,,,0.14,,2013-04-19 05:22:00,
2013-04-19 00:32:00,32.0,31.0,29.42,NE,56,3.0,6.0,97,0.00,,,0.14,,2013-04-19 05:32:00,
2013-04-19 00:42:00,32.0,31.0,29.42,NE,56,3.0,6.0,97,0.00,,,0.14,,2013-04-19 05:42:00,
2013-04-19 00:52:00,32.0,31.0,29.42,NNW,340,3.0,8.0,97,0.00,,,0.14,,2013-04-19 05:52:00,
2013-04-19 01:01:00,32.0,31.0,29.42,NNE,22,1.0,6.0,97,0.00,,,0.14,,2013-04-19 06:01:00,
2013-04-19 01:11:00,32.0,31.0,29.42,NNE,22,1.0,6.0,97,0.00,,,0.14,,2013-04-19 06:11:00,
2013-04-19 01:22:00,32.0,31.0,29.41,North,10,3.0,10.0,97,0.00,,,0.14,,2013-04-19 06:22:00,
2013-04-19 01:32:00,31.0,30.0,29.41,NE,46,3.0,7.0,97,0.00,,,0.14,,2013-04-19 06:32:00,
2013-04-19 01:42:00,31.0,30.0,29.41,NE,46,3.0,7.0,97,0.00,,,0.14,,2013-04-19 06:42:00,
2013-04-19 01:53:00,31.0,30.0,29.40,NNE,26,3.0,8.0,97,0.00,,,0.14,,2013-04-19 06:53:00,
2013-04-19 02:02:00,31.0,30.0,29.39,East,94,3.0,8.0,97,0.00,,,0.14,,2013-04-19 07:02:00,
2013-04-19 02:12:00,31.0,30.0,29.39,East,94,3.0,8.0,97,0.00,,,0.14,,2013-04-19 07:12:00,
2013-04-19 02:21:00,31.0,30.0,29.40,NNE,33,2.0,9.0,97,0.00,,,0.14,,2013-04-19 07:21:00,
2013-04-19 02:32:00,31.0,30.0,29.39,North,5,2.0,9.0,97,0.00,,,0.14,,2013-04-19 07:32:00,
2013-04-19 02:42:00,31.0,30.0,29.39,North,5,2.0,9.0,97,0.00,,,0.14,,2013-04-19 07:42:00,
2013-04-19 02:52:00,31.0,30.0,29.39,ENE,65,2.0,7.0,97,0.00,,,0.14,,2013-04-19 07:52:00,
2013-04-19 03:02:00,31.0,30.0,29.40,North,360,3.0,7.0,97,0.00,,,0.14,,2013-04-19 08:02:00,
2013-04-19 03:12:00,31.0,30.0,29.40,North,9,3.0,6.0,97,0.00,,,0.14,,2013-04-19 08:12:00,
2013-04-19 03:21:00,31.0,30.0,29.40,North,9,3.0,6.0,97,0.00,,,0.14,,2013-04-19 08:21:00,
2013-04-19 03:32:00,31.0,30.0,29.41,NE,53,3.0,9.0,97,0.00,,,0.14,,2013-04-19 08:32:00,
2013-04-19 03:42:00,31.0,30.0,29.41,NE,53,3.0,9.0,97,0.00,,,0.14,,2013-04-19 08:42:00,
2013-04-19 03:52:00,31.0,30.0,29.40,ENE,67,3.0,9.0,97,0.00,,,0.14,,2013-04-19 08:52:00,
2013-04-19 04:01:00,30.0,29.0,29.40,North,355,4.0,9.0,97,0.00,,,0.14,,2013-04-19 09:01:00,
2013-04-19 04:11:00,30.0,29.0,29.40,North,355,4.0,9.0,97,0.00,,,0.14,,2013-04-19 09:11:00,
2013-04-19 04:21:00,30.0,29.0,29.40,NE,44,4.0,9.0,97,0.00,,,0.14,,2013-04-19 09:21:00,
2013-04-19 04:32:00,30.0,29.0,29.40,North,360,4.0,9.0,97,0.00,,,0.14,,2013-04-19 09:32:00,
2013-04-19 04:42:00,30.0,29.0,29.40,North,360,4.0,9.0,97,0.00,,,0.14,,2013-04-19 09:42:00,
2013-04-19 04:52:00,30.0,29.0,29.40,NNE,16,5.0,13.0,97,0.00,,,0.14,,2013-04-19 09:52:00,
2013-04-19 05:02:00,30.0,29.0,29.40,NNE,21,3.0,8.0,97,0.00,,,0.14,,2013-04-19 10:02:00,
2013-04-19 05:13:00,29.0,28.0,29.41,North,5,4.0,9.0,97,0.00,,,0.14,,2013-04-19 10:13:00,
2013-04-19 05:23:00,29.0,28.0,29.41,North,5,4.0,9.0,97,0.00,,,0.14,,2013-04-19 10:23:00,
2013-04-19 05:33:00,29.0,28.0,29.40,NNW,334,3.0,7.0,97,0.00,,,0.14,,2013-04-19 10:33:00,
2013-04-19 05:42:00,29.0,28.0,29.40,North,355,4.0,8.0,96,0.00,,,0.14,,2013-04-19 10:42:00,
2013-04-19 05:52:00,29.0,28.0,29.40,North,355,4.0,8.0,96,0.00,,,0.14,,2013-04-19 10:52:00,
2013-04-19 06:02:00,29.0,28.0,29.40,North,351,3.0,15.0,96,0.00,,,0.14,,2013-04-19 11:02:00,
2013-04-19 06:11:00,29.0,28.0,29.40,North,351,3.0,15.0,96,0.00,,,0.14,,2013-04-19 11:11:00,
2013-04-19 06:22:00,28.0,27.0,29.41,NNE,32,3.0,8.0,96,0.00,,,0.14,,2013-04-19 11:22:00,
2013-04-19 06:32:00,28.0,27.0,29.41,NNW,329,4.0,12.0,96,0.00,,,0.14,,2013-04-19 11:32:00,
2013-04-19 06:42:00,28.0,27.0,29.41,NNW,329,4.0,12.0,96,0.00,,,0.14,,2013-04-19 11:42:00,
2013-04-19 06:52:00,28.0,27.0,29.42,NNW,338,5.0,10.0,96,0.00,,,0.14,,2013-04-19 11:52:00,
2013-04-19 07:02:00,28.0,27.0,29.42,NE,38,4.0,11.0,96,0.00,,,0.14,,2013-04-19 12:02:00,
2013-04-19 07:12:00,28.0,27.0,29.42,NE,38,4.0,11.0,96,0.00,,,0.14,,2013-04-19 12:12:00,
2013-04-19 07:22:00,28.0,27.0,29.43,ESE,107,3.0,12.0,95,0.00,,,0.14,,2013-04-19 12:22:00,
2013-04-19 07:32:00,28.0,27.0,29.43,NNW,331,3.0,12.0,95,0.00,,,0.14,,2013-04-19 12:32:00,
2013-04-19 07:42:00,28.0,27.0,29.43,NNW,331,3.0,12.0,95,0.00,,,0.14,,2013-04-19 12:42:00,
2013-04-19 07:53:00,28.0,27.0,29.43,North,9,5.0,11.0,95,0.00,,,0.14,,2013-04-19 12:53:00,
2013-04-19 08:01:00,28.0,27.0,29.43,NNW,329,5.0,11.0,94,0.00,,,0.14,,2013-04-19 13:01:00,
2013-04-19 08:11:00,28.0,27.0,29.43,NNW,329,5.0,11.0,94,0.00,,,0.14,,2013-04-19 13:11:00,
2013-04-19 08:21:00,28.0,26.0,29.44,NNE,17,5.0,11.0,93,0.00,,,0.14,,2013-04-19 13:21:00,
2013-04-19 08:32:00,28.0,26.0,29.44,NNW,347,3.0,9.0,92,0.00,,,0.14,,2013-04-19 13:32:00,
2013-04-19 08:42:00,28.0,26.0,29.44,NNW,347,3.0,9.0,92,0.00,,,0.14,,2013-04-19 13:42:00,
2013-04-19 08:52:00,28.0,26.0,29.44,North,9,4.0,11.0,92,0.00,,,0.14,,2013-04-19 13:52:00,
2013-04-19 09:01:00,28.0,26.0,29.45,NNE,19,2.0,8.0,92,0.00,,,0.14,,2013-04-19 14:01:00,
2013-04-19 09:11:00,28.0,26.0,29.45,NNE,19,2.0,8.0,92,0.00,,,0.14,,2013-04-19 14:11:00,
2013-04-19 09:21:00,28.0,26.0,29.45,NW,325,3.0,10.0,93,0.00,,,0.14,,2013-04-19 14:21:00,
2013-04-19 09:32:00,28.0,26.0,29.46,ENE,58,2.0,7.0,93,0.00,,,0.14,,2013-04-19 14:32:00,
2013-04-19 09:42:00,28.0,26.0,29.46,ENE,58,2.0,7.0,93,0.00,,,0.14,,2013-04-19 14:42:00,
2013-04-19 09:52:00,28.0,26.0,29.46,North,5,2.0,7.0,93,0.00,,,0.14,,2013-04-19 14:52:00,
2013-04-19 10:01:00,28.0,26.0,29.46,North,5,2.0,7.0,93,0.00,,,0.14,,2013-04-19 15:01:00,
2013-04-19 10:12:00,28.0,26.0,29.46,North,5,2.0,7.0,93,0.00,,,0.14,,2013-04-19 15:12:00,
2013-04-19 10:21:00,29.0,27.0,29.47,North,5,3.0,13.0,93,0.00,,,0.14,,2013-04-19 15:21:00,
2013-04-19 10:33:00,29.0,27.0,29.47,NNW,342,3.0,8.0,91,0.00,,,0.14,,2013-04-19 15:33:00,
2013-04-19 10:43:00,29.0,27.0,29.47,NNW,342,3.0,8.0,91,0.00,,,0.14,,2013-04-19 15:43:00,
2013-04-19 10:52:00,29.0,27.0,29.48,North,11,2.0,9.0,91,0.00,,,0.14,,2013-04-19 15:52:00,
2013-04-19 11:03:00,29.0,26.0,29.49,North,11,2.0,8.0,90,0.00,,,0.14,,2013-04-19 16:03:00,
2013-04-19 11:13:00,29.0,26.0,29.49,North,11,2.0,8.0,90,0.00,,,0.14,,2013-04-19 16:13:00,
2013-04-19 11:23:00,29.0,26.0,29.50,North,351,4.0,9.0,89,0.00,,,0.14,,2013-04-19 16:23:00,
2013-04-19 11:32:00,29.0,26.0,29.51,NNW,348,3.0,10.0,89,0.00,,,0.14,,2013-04-19 16:32:00,
2013-04-19 11:42:00,29.0,26.0,29.51,NNW,348,3.0,10.0,89,0.00,,,0.14,,2013-04-19 16:42:00,
2013-04-19 11:52:00,29.0,26.0,29.51,NE,40,4.0,10.0,89,0.01,,,0.15,,2013-04-19 16:52:00,
2013-04-19 12:02:00,30.0,27.0,29.52,NE,35,4.0,9.0,88,0.01,,,0.15,,2013-04-19 17:02:00,
2013-04-19 12:12:00,30.0,27.0,29.52,NE,35,4.0,9.0,88,0.01,,,0.15,,2013-04-19 17:12:00,
2013-04-19 12:21:00,29.0,26.0,29.53,NNW,329,4.0,13.0,87,0.01,,,0.15,,2013-04-19 17:21:00,
2013-04-19 12:33:00,30.0,26.0,29.53,North,351,4.0,13.0,85,0.01,,,0.15,,2013-04-19 17:33:00,
2013-04-19 12:42:00,30.0,26.0,29.53,North,351,4.0,13.0,85,0.01,,,0.15,,2013-04-19 17:42:00,
2013-04-19 12:52:00,31.0,27.0,29.54,North,9,4.0,14.0,84,0.00,,,0.15,,2013-04-19 17:52:00,
2013-04-19 13:02:00,30.0,26.0,29.55,ENE,73,5.0,13.0,86,0.00,,,0.15,,2013-04-19 18:02:00,
2013-04-19 13:13:00,30.0,26.0,29.55,ENE,73,5.0,13.0,86,0.00,,,0.15,,2013-04-19 18:13:00,
2013-04-19 13:23:00,31.0,27.0,29.56,NE,45,5.0,11.0,85,0.00,,,0.15,,2013-04-19 18:23:00,
2013-04-19 13:33:00,31.0,27.0,29.57,North,11,4.0,11.0,84,0.01,,,0.16,,2013-04-19 18:33:00,
2013-04-19 13:43:00,31.0,27.0,29.57,North,11,4.0,11.0,84,0.01,,,0.16,,2013-04-19 18:43:00,
2013-04-19 13:52:00,29.0,25.0,29.57,North,5,3.0,11.0,86,0.02,,,0.17,,2013-04-19 18:52:00,
2013-04-19 14:02:00,30.0,26.0,29.59,NNW,340,4.0,12.0,86,0.02,,,0.17,,2013-04-19 19:02:00,
2013-04-19 14:11:00,30.0,26.0,29.59,NNW,340,4.0,12.0,86,0.02,,,0.17,,2013-04-19 19:11:00,
2013-04-19 14:21:00,31.0,27.0,29.59,North,11,3.0,11.0,85,0.03,,,0.18,,2013-04-19 19:21:00,
2013-04-19 14:32:00,29.0,25.0,29.60,NNW,348,7.0,14.0,85,0.03,,,0.16,,2013-04-19 19:32:00,
2013-04-19 14:42:00,29.0,25.0,29.60,NNW,348,7.0,14.0,85,0.03,,,0.16,,2013-04-19 19:42:00,
2013-04-19 14:52:00,29.0,26.0,29.61,NNW,346,3.0,15.0,87,0.03,,,0.17,,2013-04-19 19:52:00,
2013-04-19 15:02:00,29.0,26.0,29.63,NE,46,2.0,13.0,88,0.03,,,0.18,,2013-04-19 20:02:00,
2013-04-19 15:11:00,29.0,26.0,29.63,NE,46,2.0,13.0,88,0.03,,,0.18,,2013-04-19 20:11:00,
2013-04-19 15:22:00,29.0,26.0,29.64,NNE,13,3.0,9.0,90,0.03,,,0.18,,2013-04-19 20:22:00,
2013-04-19 15:32:00,29.0,27.0,29.65,NNE,29,3.0,10.0,91,0.03,,,0.16,,2013-04-19 20:32:00,
2013-04-19 15:42:00,30.0,27.0,29.66,North,5,3.0,9.0,89,0.03,,,0.17,,2013-04-19 20:42:00,
2013-04-19 15:51:00,30.0,27.0,29.66,North,5,3.0,9.0,89,0.03,,,0.17,,2013-04-19 20:51:00,
2013-04-19 16:01:00,30.0,27.0,29.67,NNE,26,3.0,9.0,87,0.02,,,0.17,,2013-04-19 21:01:00,
2013-04-19 16:11:00,30.0,27.0,29.68,NNE,17,4.0,13.0,87,0.03,,,0.18,,2013-04-19 21:11:00,
2013-04-19 16:21:00,30.0,27.0,29.68,NNE,17,4.0,13.0,87,0.03,,,0.18,,2013-04-19 21:21:00,
2013-04-19 16:32:00,30.0,26.0,29.69,North,350,6.0,14.0,85,0.03,,,0.17,,2013-04-19 21:32:00,
2013-04-19 16:42:00,30.0,26.0,29.69,North,350,6.0,14.0,85,0.03,,,0.17,,2013-04-19 21:42:00,
2013-04-19 16:52:00,29.0,26.0,29.70,NE,36,3.0,10.0,88,0.02,,,0.17,,2013-04-19 21:52:00,
2013-04-19 17:02:00,31.0,26.0,29.72,North,351,3.0,10.0,80,0.03,,,0.18,,2013-04-19 22:02:00,
2013-04-19 17:12:00,31.0,26.0,29.72,North,351,3.0,10.0,80,0.03,,,0.18,,2013-04-19 22:12:00,
2013-04-19 17:22:00,29.0,26.0,29.73,NE,51,4.0,10.0,87,0.03,,,0.19,,2013-04-19 22:22:00,
2013-04-19 17:33:00,30.0,25.0,29.74,NNE,13,3.0,9.0,83,0.02,,,0.18,,2013-04-19 22:33:00,
2013-04-19 17:42:00,30.0,25.0,29.74,NNE,13,3.0,9.0,83,0.02,,,0.18,,2013-04-19 22:42:00,
2013-04-19 17:52:00,30.0,24.0,29.76,NNW,340,3.0,9.0,79,0.02,,,0.18,,2013-04-19 22:52:00,
2013-04-19 18:03:00,30.0,24.0,29.78,NW,325,5.0,12.0,77,0.02,,,0.19,,2013-04-19 23:03:00,
2013-04-19 18:11:00,30.0,24.0,29.78,NW,325,5.0,12.0,77,0.02,,,0.19,,2013-04-19 23:11:00,
2013-04-19 18:22:00,30.0,24.0,29.79,East,87,3.0,10.0,78,0.01,,,0.19,,2013-04-19 23:22:00,
2013-04-19 18:32:00,29.0,23.0,29.80,North,351,5.0,13.0,79,0.01,,,0.17,,2013-04-19 23:32:00,
2013-04-19 18:42:00,29.0,23.0,29.80,North,351,5.0,13.0,79,0.01,,,0.17,,2013-04-19 23:42:00,
2013-04-19 18:52:00,29.0,24.0,29.81,North,11,4.0,9.0,81,0.01,,,0.17,,2013-04-19 23:52:00,
2013-04-19 19:02:00,29.0,25.0,29.83,NNE,13,2.0,6.0,85,0.00,,,0.17,,2013-04-20 00:02:00,
2013-04-19 19:12:00,29.0,25.0,29.83,NNE,13,2.0,6.0,85,0.00,,,0.17,,2013-04-20 00:12:00,
2013-04-19 19:21:00,29.0,24.0,29.83,NNE,17,3.0,9.0,82,0.00,,,0.17,,2013-04-20 00:21:00,
2013-04-19 19:32:00,29.0,24.0,29.84,NNW,337,4.0,9.0,81,0.00,,,0.16,,2013-04-20 00:32:00,
2013-04-19 19:42:00,29.0,24.0,29.84,NNW,337,4.0,9.0,81,0.00,,,0.16,,2013-04-20 00:42:00,
2013-04-19 19:51:00,29.0,24.0,29.85,North,360,2.0,9.0,80,0.00,,,0.16,,2013-04-20 00:51:00,
2013-04-19 20:01:00,29.0,23.0,29.86,NNE,24,3.0,8.0,79,0.00,,,0.16,,2013-04-20 01:01:00,
2013-04-19 20:11:00,29.0,23.0,29.86,NNE,24,3.0,8.0,79,0.00,,,0.16,,2013-04-20 01:11:00,
2013-04-19 20:21:00,28.0,22.0,29.88,NNW,333,3.0,7.0,78,0.00,,,0.16,,2013-04-20 01:21:00,
2013-04-19 20:32:00,28.0,23.0,29.88,North,351,3.0,7.0,82,0.00,,,0.15,,2013-04-20 01:32:00,
2013-04-19 20:42:00,28.0,23.0,29.88,North,351,3.0,7.0,82,0.00,,,0.15,,2013-04-20 01:42:00,
2013-04-19 20:52:00,28.0,23.0,29.89,NE,42,3.0,9.0,80,0.00,,,0.15,,2013-04-20 01:52:00,
2013-04-19 21:01:00,28.0,23.0,29.89,North,9,3.0,8.0,80,0.00,,,0.15,,2013-04-20 02:01:00,
2013-04-19 21:11:00,28.0,23.0,29.89,North,9,3.0,8.0,80,0.00,,,0.15,,2013-04-20 02:11:00,
2013-04-19 21:21:00,28.0,23.0,29.90,NNW,331,3.0,7.0,80,0.00,,,0.15,,2013-04-20 02:21:00,
2013-04-19 21:32:00,28.0,22.0,29.91,East,87,3.0,8.0,78,0.00,,,0.15,,2013-04-20 02:32:00,
2013-04-19 21:42:00,28.0,22.0,29.91,East,87,3.0,8.0,78,0.00,,,0.15,,2013-04-20 02:42:00,
2013-04-19 21:52:00,28.0,21.0,29.92,NE,55,3.0,7.0,74,0.00,,,0.15,,2013-04-20 02:52:00,
2013-04-19 22:01:00,28.0,20.0,29.92,NNE,29,2.0,9.0,73,0.00,,,0.15,,2013-04-20 03:01:00,
2013-04-19 22:11:00,28.0,20.0,29.92,NNE,29,2.0,9.0,73,0.00,,,0.15,,2013-04-20 03:11:00,
2013-04-19 22:21:00,28.0,21.0,29.92,NNW,348,1.0,5.0,75,0.00,,,0.15,,2013-04-20 03:21:00,
2013-04-19 22:33:00,27.0,20.0,29.93,NNE,19,0.0,3.0,76,0.00,,,0.15,,2013-04-20 03:33:00,
2013-04-19 22:43:00,27.0,20.0,29.93,NNE,19,0.0,3.0,76,0.00,,,0.15,,2013-04-20 03:43:00,
2013-04-19 22:52:00,27.0,21.0,29.93,NNE,19,0.0,1.0,79,0.00,,,0.15,,2013-04-20 03:52:00,
2013-04-19 23:03:00,26.0,21.0,29.94,NNE,19,0.0,0.0,82,0.00,,,0.15,,2013-04-20 04:03:00,
2013-04-19 23:12:00,26.0,21.0,29.94,NNE,19,0.0,0.0,82,0.00,,,0.15,,2013-04-20 04:12:00,
2013-04-19 23:23:00,26.0,20.0,29.94,North,355,0.0,3.0,78,0.00,,,0.15,,2013-04-20 04:23:00,
2013-04-19 23:32:00,25.0,19.0,29.95,North,5,0.0,2.0,78,0.00,,,0.14,,2013-04-20 04:32:00,
2013-04-19 23:42:00,25.0,19.0,29.95,North,5,0.0,2.0,78,0.00,,,0.14,,2013-04-20 04:42:00,
2013-04-19 23:52:00,25.0,18.0,29.95,NNE,21,0.0,5.0,75,0.00,,,0.14,,2013-04-20 04:52:00,